ECMWFFLT1_sfc_temp_102.txt.gz
Temp
72 72 73 74 75 75 74 74 75 73 75 76 75 75 75 74 73 72 72 70 70 70 70 69 68 68 67 67 66 67 67 68 66 64 63 64 62 62 65 64 65 65 68 66 65 62 60 58 59 64 66 65 64 64 66 67 67 66 65 66 67 67 66
74 74 75 75 74 75 74 74 74 74 74 74 75 73 74 75 73 72 72 71 70 69 69 69 68 67 67 66 66 65 65 65 66 66 65 63 63 62 62 62 64 65 66 66 66 65 60 59 59 61 61 64 63 64 65 66 66 65 66 66 66 66 67
72 73 73 73 73 73 73 73 73 72 72 73 73 74 73 75 74 73 72 72 71 70 69 68 69 69 68 66 65 65 65 65 65 66 65 65 64 64 64 64 63 63 63 63 63 63 63 63 59 59 62 61 59 62 65 65 65 66 66 66 65 66 67
72 71 71 71 72 72 72 72 72 71 70 69 70 72 73 73 74 74 73 72 71 70 69 69 68 67 67 66 66 66 65 65 65 64 64 65 64 63 64 64 64 64 62 61 62 63 63 61 60 60 62 64 63 61 63 66 66 68 68 66 65 65 66
72 71 70 70 71 71 71 71 72 72 70 69 68 67 69 71 71 70 73 72 70 68 68 69 69 68 67 66 66 65 64 65 65 64 64 64 64 64 65 66 66 66 65 64 65 64 62 62 62 61 61 63 63 64 67 65 67 68 67 66 67 65 66
73 72 72 71 72 71 72 71 71 71 69 68 68 67 68 70 68 68 69 69 70 69 68 69 69 68 67 65 66 66 66 64 64 65 63 64 64 64 64 66 66 67 66 66 66 64 64 64 62 60 62 64 60 61 64 65 63 68 66 64 68 67 66
72 72 72 72 72 72 72 71 71 70 68 68 68 68 68 68 67 68 67 66 67 68 67 67 69 69 68 66 66 65 65 65 65 65 64 65 64 65 66 65 65 67 67 67 66 66 64 63 61 60 61 61 60 60 62 62 66 64 64 65 68 69 68
72 72 72 72 72 72 72 71 71 71 68 67 68 68 67 66 66 66 67 67 68 68 69 69 69 68 68 67 66 66 65 65 65 64 64 64 64 64 64 65 65 66 67 67 66 66 66 64 63 62 60 58 59 59 59 62 64 66 65 67 69 70 69
72 72 72 72 72 72 71 71 70 69 68 67 69 68 67 66 65 66 66 66 66 65 68 68 67 67 67 65 65 65 64 65 64 64 63 64 64 64 64 65 64 65 67 67 68 68 68 65 64 63 63 62 59 57 59 59 61 62 67 65 67 71 71
71 71 71 71 72 72 71 70 68 68 68 68 68 68 67 67 66 65 65 65 66 67 67 66 66 67 66 66 65 65 64 65 65 64 64 64 64 64 64 65 65 66 67 68 69 69 69 68 67 65 64 63 61 58 58 57 59 60 65 69 66 69 72
70 71 71 71 71 70 69 69 68 66 66 67 68 68 68 67 66 66 65 66 65 66 66 66 67 66 66 65 65 64 65 65 64 63 63 64 63 64 64 64 65 66 67 68 68 69 69 68 67 67 65 63 62 60 59 60 60 63 62 66 69 67 70
70 70 71 71 71 70 69 68 67 66 66 67 66 66 66 65 65 65 66 66 64 64 67 65 65 66 66 64 64 64 64 64 62 62 63 64 64 64 64 64 64 65 67 67 68 68 68 68 67 67 65 67 67 66 61 58 57 61 64 62 66 71 69
71 70 70 70 70 70 69 68 68 66 65 66 65 65 65 65 66 65 65 64 65 65 65 66 66 66 65 64 64 63 63 64 63 62 63 64 66 65 64 64 65 66 66 67 68 68 68 69 69 68 67 68 67 66 60 61 60 60 63 63 64 67 71
69 70 70 70 69 69 69 68 68 66 66 65 65 64 64 65 66 64 64 66 65 65 64 65 66 66 65 64 63 64 64 63 63 63 63 64 65 65 64 65 65 67 68 67 68 68 68 69 70 69 69 66 65 66 66 64 62 60 62 65 66 68 71
69 69 68 69 68 68 68 67 67 67 65 66 66 65 65 65 64 65 65 65 65 65 65 65 66 65 64 63 64 65 64 63 64 63 63 63 64 65 65 65 67 68 69 69 69 70 70 69 70 70 65 66 64 64 67 65 64 61 60 63 64 67 69
68 68 68 68 68 67 67 67 67 66 65 65 66 65 65 65 65 65 65 64 62 64 64 65 65 65 64 64 65 64 64 64 64 63 63 63 63 64 64 64 67 69 70 69 68 69 69 70 69 64 62 63 62 64 66 68 66 62 62 62 65 65 67
66 67 67 68 67 67 67 66 67 65 65 64 64 64 65 65 65 64 64 65 65 65 64 64 64 65 65 65 64 64 64 63 64 64 65 64 64 64 62 63 64 68 69 68 68 67 68 68 62 63 63 63 62 65 63 65 67 66 65 63 65 68 68
65 65 66 66 66 67 67 67 66 65 64 64 64 64 64 64 64 64 64 65 64 64 65 64 65 65 65 65 65 65 65 64 64 65 63 64 63 63 64 65 68 69 69 68 66 66 68 64 64 63 64 64 64 66 66 66 66 68 65 64 64 68 68
63 63 64 64 65 66 66 66 66 65 64 64 64 64 64 64 64 64 64 65 65 64 64 65 65 65 66 66 66 66 65 65 65 65 65 66 66 67 67 67 65 65 64 63 66 65 65 65 64 63 65 65 66 67 66 66 65 66 67 66 65 65 69
63 63 63 63 64 65 65 65 66 65 64 64 64 63 64 64 63 64 64 63 63 64 63 62 62 64 66 66 65 65 65 65 65 64 65 65 66 67 66 65 62 62 62 63 64 62 64 65 64 62 64 63 66 65 64 64 63 62 63 65 66 66 67
63 63 63 63 63 63 63 63 63 64 64 63 62 63 63 63 63 62 62 63 62 61 58 56 55 56 61 65 64 64 65 65 65 65 65 66 67 65 64 65 63 64 63 64 64 64 64 64 66 64 63 64 66 65 63 62 62 61 61 64 64 63 65
63 63 63 62 62 61 61 60 61 61 62 62 62 62 63 63 63 63 63 61 58 57 55 53 50 50 52 57 63 64 65 66 67 66 66 67 66 65 65 65 65 64 65 61 60 61 63 64 67 65 65 65 65 64 63 63 61 60 58 58 60 61 62
62 62 61 61 60 60 59 59 58 58 58 59 60 60 60 60 60 58 57 57 56 55 53 51 47 44 46 50 55 63 65 66 68 67 63 62 64 64 64 62 61 57 54 55 54 52 52 55 60 66 65 64 63 63 62 61 60 58 59 58 58 59 59
62 61 60 60 60 59 58 57 57 56 56 56 56 57 57 58 57 56 55 54 53 52 50 47 43 42 43 44 52 61 67 67 66 63 63 62 62 62 62 62 61 59 58 54 50 46 46 48 47 46 47 51 56 63 61 58 59 60 58 59 59 59 57
61 60 60 59 59 58 57 56 55 55 55 54 54 54 54 54 55 55 54 53 51 50 48 44 41 43 43 44 47 62 66 65 65 64 63 63 62 62 62 61 61 63 63 62 59 55 50 46 45 45 46 46 45 44 48 58 60 59 59 59 58 59 61
61 60 60 59 58 57 56 55 54 53 53 54 54 53 52 52 52 52 52 51 49 48 46 42 41 43 45 49 51 59 63 63 62 61 61 62 63 62 62 62 62 63 64 64 63 60 58 54 49 48 50 50 49 48 45 44 48 62 62 59 59 59 61
60 60 59 59 58 57 55 54 53 53 52 53 52 52 51 50 50 50 50 50 49 47 44 42 41 43 44 46 49 54 62 61 60 59 57 57 57 58 61 61 61 60 59 56 54 60 61 60 59 62 63 60 57 54 49 47 48 53 58 62 61 60 61
59 59 59 58 57 56 54 54 53 52 51 50 50 50 50 49 49 49 49 50 49 47 44 41 41 42 43 45 48 52 60 59 59 57 55 54 53 53 56 62 60 58 57 55 51 48 61 65 65 62 58 56 54 51 50 49 51 57 62 63 60 57 56
59 59 58 57 56 55 54 53 52 52 51 50 51 51 50 50 49 48 48 48 48 46 45 40 40 41 42 43 50 58 58 57 56 56 55 53 52 51 51 54 56 56 54 53 47 44 50 61 63 62 58 57 56 53 50 46 43 47 53 56 56 54 52
58 57 57 55 54 54 53 53 54 54 52 51 49 49 49 49 49 48 47 47 47 46 45 41 40 40 41 42 51 57 57 55 54 53 53 53 51 50 49 49 51 51 51 50 44 44 48 55 61 62 62 60 59 57 55 54 46 43 43 43 43 43 44
57 56 55 54 54 54 54 54 54 55 53 52 50 50 51 50 49 49 47 46 47 46 45 43 40 40 41 41 49 57 55 54 53 52 51 51 50 49 49 47 48 46 46 46 43 44 46 56 59 59 61 60 58 57 56 57 57 51 44 44 44 45 45
57 56 55 54 54 53 54 54 55 55 55 54 52 52 51 50 49 49 48 47 47 46 45 44 40 40 40 40 48 56 54 52 50 50 50 49 49 48 48 46 44 43 44 43 41 44 45 53 56 58 58 57 55 56 56 58 58 57 58 58 58 59 57
57 56 55 55 54 53 54 54 54 54 54 55 53 52 51 50 48 48 49 48 47 46 45 45 42 40 40 40 42 51 53 52 49 48 48 48 47 46 46 45 44 40 40 41 41 41 43 45 52 53 54 54 55 55 57 56 56 59 59 58 58 59 58
56 56 57 56 55 55 54 53 53 53 52 53 53 52 51 50 49 48 49 48 47 47 46 45 44 40 40 40 40 44 49 49 50 49 48 46 46 44 44 43 43 41 40 41 41 41 42 43 45 49 48 48 49 51 54 57 56 54 58 57 57 57 58
57 56 56 56 55 55 55 55 54 53 53 53 52 51 51 50 50 48 48 48 47 47 47 44 44 42 40 40 40 40 44 45 47 49 47 46 45 44 43 43 42 41 40 40 40 41 42 42 43 48 45 42 43 45 54 55 57 57 56 56 56 55 56
57 58 56 56 55 54 55 55 55 55 54 53 53 52 52 51 50 49 48 47 47 47 46 46 42 42 41 40 40 40 39 41 42 46 45 44 43 43 44 44 44 42 40 41 41 41 41 42 44 44 42 43 43 45 49 54 54 55 54 54 53 53 54
59 58 57 56 55 53 53 54 54 54 54 53 53 52 53 52 52 50 49 48 47 46 45 44 43 41 41 40 40 40 39 39 40 43 44 43 43 43 43 43 42 40 41 41 41 41 41 41 42 41 42 43 45 46 52 52 51 52 49 50 51 51 52

ECMWFFLT1_sfc_temp_105.txt.gz
Temp
66 66 67 68 68 68 68 68 66 65 66 66 66 66 66 67 66 65 65 65 66 66 66 65 65 66 66 66 66 66 65 65 64 63 62 63 62 62 64 62 62 63 63 63 62 59 59 57 58 61 63 63 63 63 64 64 65 64 64 64 64 64 64
67 67 67 67 66 67 67 67 68 65 64 66 67 66 66 67 67 65 66 66 65 66 66 65 66 66 65 65 65 63 63 63 63 65 64 63 63 62 62 62 62 62 62 62 63 61 58 57 56 59 60 62 62 61 62 64 64 64 64 64 64 65 64
65 65 65 65 65 65 65 66 66 66 64 65 66 66 67 68 66 65 65 65 65 65 66 66 66 66 65 65 66 64 64 63 63 64 64 64 63 63 63 62 61 60 61 60 61 61 61 61 58 58 60 59 58 60 62 62 63 64 64 64 64 65 64
64 64 63 62 63 64 64 65 65 66 65 65 65 66 66 66 65 65 64 64 64 65 65 65 65 66 65 65 64 63 63 63 63 64 64 64 63 62 62 62 61 61 61 59 60 61 61 59 58 58 60 61 61 59 61 63 63 64 64 64 64 64 64
65 65 64 63 64 64 64 64 65 65 64 64 64 64 64 65 65 64 65 64 64 63 63 64 64 64 64 63 64 63 64 64 64 64 64 63 62 62 62 62 62 63 62 61 62 62 61 60 61 59 59 61 61 61 63 63 64 63 63 64 64 64 64
65 65 65 64 64 64 64 64 64 64 64 64 63 64 64 64 64 64 64 64 63 63 64 64 64 64 64 64 63 63 63 63 63 63 63 63 63 62 62 63 63 63 63 63 63 63 63 62 61 59 60 62 58 59 61 62 61 64 64 63 64 64 64
65 65 65 65 66 65 65 64 64 63 63 63 64 64 64 65 64 64 64 64 64 64 64 64 64 64 65 64 63 63 63 63 63 63 63 63 63 64 63 63 63 63 64 65 64 64 63 62 60 60 59 59 59 58 60 61 62 60 62 63 64 64 64
64 64 64 65 65 65 65 64 64 64 63 63 63 64 65 64 64 63 63 63 63 64 63 63 63 64 64 64 64 63 64 64 63 63 63 63 63 63 63 63 64 64 64 65 65 64 64 63 62 61 60 57 57 57 56 59 60 61 61 63 64 64 64
64 64 64 65 65 64 64 63 64 63 63 63 63 64 64 64 64 64 63 63 63 63 63 64 65 64 63 63 64 64 64 65 63 63 63 63 63 63 63 64 63 64 64 65 65 65 64 64 63 62 61 60 57 54 56 56 58 59 63 60 63 65 64
63 63 63 64 65 65 64 64 63 63 63 63 63 64 63 64 64 64 63 63 63 63 63 63 63 63 63 63 63 64 64 64 64 64 63 62 63 63 62 63 63 64 64 65 65 65 65 64 64 63 62 61 60 57 55 55 56 57 60 63 60 63 65
63 64 63 64 64 64 63 64 63 63 63 63 64 64 64 63 63 64 62 63 63 63 62 62 63 63 63 63 63 63 63 63 63 62 62 63 62 63 62 63 63 63 64 65 65 65 65 64 63 64 63 62 61 59 57 55 56 59 59 62 63 61 65
63 63 63 64 63 63 63 63 63 63 63 63 63 63 63 62 62 62 62 62 62 62 62 62 62 62 63 63 63 62 63 63 62 62 62 62 62 63 62 62 63 63 64 64 65 65 64 64 63 63 63 63 62 62 59 57 55 59 62 59 61 64 65
63 63 64 63 63 63 63 63 63 63 62 63 63 63 62 62 63 63 63 62 62 62 62 62 62 62 62 62 62 62 62 62 62 62 62 62 63 62 63 62 63 63 63 64 65 65 64 63 63 63 63 62 62 62 61 59 58 57 60 60 61 62 65
63 64 64 64 64 63 63 63 63 63 63 62 62 62 62 62 63 63 63 62 63 63 61 61 62 62 62 62 61 61 62 62 62 61 62 62 63 63 62 63 63 64 64 64 64 64 63 62 63 62 62 61 61 61 60 59 58 57 59 62 62 62 64
64 64 64 64 64 63 63 63 63 63 62 62 62 62 63 63 63 63 63 62 61 62 62 63 62 61 61 61 61 62 61 61 62 61 61 61 62 64 63 63 63 64 64 64 63 64 64 63 63 62 62 62 61 60 61 59 59 59 58 60 60 62 63
63 62 62 62 63 64 63 63 64 62 62 62 63 63 63 63 63 63 62 61 61 61 61 61 61 61 61 61 61 61 61 61 61 60 60 61 63 63 62 62 63 63 64 64 62 61 62 63 63 62 61 61 61 61 61 63 62 59 59 59 62 61 63
61 60 60 61 61 62 63 63 63 62 62 62 62 63 63 63 62 62 62 63 62 62 62 61 62 62 62 62 62 62 61 61 61 61 62 62 62 62 62 61 61 61 62 61 61 61 62 61 61 61 61 61 61 62 61 62 63 62 61 59 61 63 63
60 60 60 60 60 61 61 61 61 62 62 62 62 62 62 62 62 61 60 61 60 59 59 60 62 62 62 62 62 62 62 61 61 61 61 62 63 62 61 61 61 62 62 61 60 61 61 61 61 61 61 60 61 62 63 62 62 64 62 60 60 63 64
60 60 60 59 59 59 59 59 59 60 60 60 61 61 62 61 60 59 58 57 57 56 55 55 56 59 62 62 62 62 61 62 62 62 62 62 62 62 62 62 62 62 61 60 61 61 62 61 61 60 61 61 62 62 61 61 61 64 63 62 62 61 62
59 59 59 59 59 58 58 58 58 57 58 58 59 59 58 58 58 58 57 56 55 54 53 53 52 54 57 61 61 62 62 62 62 62 62 62 61 62 62 62 61 61 61 61 61 60 61 61 61 61 61 61 62 61 58 58 59 60 60 61 61 62 62
59 59 59 58 58 57 57 57 57 57 57 56 56 57 57 56 56 56 55 54 54 52 51 51 49 51 53 56 58 60 61 62 62 62 61 61 62 62 62 62 61 61 61 62 61 60 61 61 61 60 61 62 60 59 59 58 59 57 57 58 57 57 61
59 59 58 57 56 56 56 56 56 56 55 55 55 55 56 56 54 53 53 52 52 51 49 49 48 48 49 56 56 59 62 62 62 62 62 62 62 62 61 60 59 60 62 63 59 60 60 62 62 60 60 60 60 59 59 58 57 56 55 56 57 59 61
59 58 57 56 55 55 55 54 55 55 54 54 54 54 54 54 53 52 51 51 50 49 48 48 48 46 47 53 59 62 62 61 62 61 60 60 60 60 59 58 58 58 54 53 52 49 50 51 57 62 60 60 60 60 59 58 57 57 56 55 54 55 56
58 57 56 56 55 54 54 53 53 53 53 53 52 52 52 51 52 51 50 49 48 47 47 46 43 43 44 51 60 60 60 59 60 60 60 60 59 59 59 60 59 61 58 56 51 45 44 43 45 45 47 51 57 62 60 57 57 57 56 55 54 54 55
57 56 55 55 54 54 53 52 52 52 52 51 51 51 50 50 50 51 50 49 47 46 45 43 41 43 44 47 53 58 58 57 56 55 56 58 60 60 59 59 59 59 59 59 56 52 48 46 45 45 44 44 43 43 46 55 57 56 57 56 55 55 55
56 55 55 54 54 53 52 51 51 50 50 51 51 49 48 48 48 49 49 48 47 45 44 42 41 43 44 45 47 54 55 55 53 53 54 55 56 58 58 57 56 56 56 59 58 56 56 55 50 48 48 49 48 46 42 44 51 57 58 56 56 55 56
55 54 54 54 54 53 52 51 51 50 50 50 49 48 48 46 46 46 47 47 46 45 43 42 41 43 44 45 46 51 55 54 52 51 51 51 52 53 54 54 54 53 54 53 52 56 58 56 55 55 54 53 52 51 47 46 48 50 55 59 57 56 56
54 53 54 54 53 53 52 51 51 50 50 49 48 47 47 46 46 45 45 46 45 44 43 41 41 42 43 45 46 49 54 53 52 51 50 50 50 49 50 52 53 52 52 52 50 47 56 57 56 54 53 52 52 51 49 50 54 55 55 56 55 55 54
53 53 53 53 52 52 52 51 50 50 49 48 48 48 47 46 45 45 45 45 45 44 43 40 40 41 42 44 48 53 52 51 50 49 49 49 48 48 48 49 49 50 51 52 49 47 53 58 57 56 54 54 53 51 49 47 45 48 52 53 53 53 52
51 51 51 51 51 51 52 51 51 51 48 47 45 45 45 45 46 45 45 45 45 45 44 41 40 40 41 44 49 52 51 50 49 48 47 48 47 47 47 48 48 48 48 48 44 44 47 54 57 56 55 54 54 53 52 52 46 44 44 44 43 43 43
50 49 49 49 49 50 51 52 51 51 49 47 46 45 45 45 45 45 45 45 45 44 44 42 40 40 41 42 49 51 50 49 47 47 47 47 47 46 47 47 47 45 45 44 42 42 46 54 57 56 56 54 53 53 52 54 54 50 43 44 44 45 45
49 49 48 48 48 48 48 48 49 50 49 48 47 46 46 44 45 45 45 45 46 44 44 44 41 40 41 41 48 51 50 48 46 45 45 45 46 45 46 46 45 43 43 42 40 41 43 51 55 55 55 54 53 52 52 54 54 54 55 55 55 56 54
49 48 47 46 46 46 46 46 46 46 46 46 46 46 46 45 45 45 46 45 45 43 43 43 42 40 41 41 43 49 49 47 45 44 45 45 45 45 45 45 44 40 40 41 41 41 41 43 49 49 51 52 53 52 53 53 52 54 54 54 54 54 53
49 49 48 47 47 47 46 45 45 45 45 45 44 45 45 45 45 45 45 46 45 45 44 43 43 40 41 40 41 44 46 46 45 45 44 44 44 43 44 44 44 42 40 40 41 41 41 42 44 47 46 46 46 47 50 52 51 50 52 51 50 51 52
50 49 49 48 47 47 47 47 47 46 45 44 44 44 45 45 44 43 44 44 44 43 45 44 43 42 40 40 40 41 44 44 44 45 44 44 44 43 43 43 44 42 41 41 40 41 41 42 42 46 44 42 42 43 49 50 51 50 50 50 49 49 49
49 50 48 47 46 45 46 46 46 46 45 45 45 45 44 44 44 43 43 43 42 42 42 43 42 42 41 40 40 40 40 42 42 46 45 43 43 44 44 44 44 42 41 41 41 41 41 42 44 43 41 42 42 43 46 48 47 49 48 48 47 47 47
49 48 47 47 46 46 45 45 46 46 45 45 44 44 43 43 43 42 41 41 41 41 41 40 41 40 41 40 40 40 40 39 40 44 45 44 44 44 44 43 43 40 41 41 41 42 41 41 42 41 42 42 43 44 47 47 47 47 45 46 46 46 46

ECMWFFLT1_sfc_temp_111.txt.gz
Temp
61 61 62 63 62 63 62 63 63 63 63 63 63 63 63 64 64 63 63 63 62 63 63 63 63 64 65 65 66 65 65 65 64 62 62 63 61 61 63 62 62 63 62 62 61 59 57 56 57 61 62 62 62 62 63 63 62 61 61 61 62 62 61
62 62 62 61 61 61 61 61 61 61 62 62 62 62 63 63 64 63 63 63 62 62 63 63 64 64 64 64 64 64 64 64 64 64 63 63 63 62 61 61 62 61 61 61 61 59 57 56 57 58 58 61 62 62 62 63 63 62 62 62 62 62 62
61 61 60 61 60 60 60 61 61 61 61 61 62 62 63 63 63 63 63 63 63 63 63 63 64 64 64 64 64 63 63 63 64 64 63 64 64 63 63 62 60 60 60 59 59 59 58 58 56 57 58 58 57 59 62 62 63 63 63 62 62 62 62
60 59 60 60 60 60 60 60 60 61 60 60 61 62 61 62 62 63 62 62 63 64 64 64 64 64 64 64 64 63 63 63 63 63 63 63 63 63 63 62 61 61 59 58 58 59 58 57 57 57 59 59 59 59 60 63 63 63 63 63 62 62 62
57 59 60 60 61 59 58 59 59 59 60 60 60 61 61 62 62 62 62 62 63 63 63 64 64 64 63 63 62 63 63 63 63 63 63 63 62 61 61 61 61 61 61 60 60 60 59 59 58 58 58 60 60 60 62 62 63 63 63 63 63 63 63
58 58 59 60 60 58 58 59 59 60 60 60 61 61 62 62 63 62 62 62 63 63 64 64 64 64 63 63 62 62 62 62 62 62 61 62 62 61 61 61 61 61 61 62 62 61 60 60 60 58 59 61 58 59 61 61 60 62 64 63 63 63 63
57 58 58 59 59 58 58 58 59 60 60 61 61 61 62 63 63 63 63 63 63 63 64 64 64 64 63 63 63 62 62 63 63 62 62 62 62 62 63 61 61 62 62 63 62 61 60 60 59 58 58 59 59 59 60 60 61 60 61 63 64 64 64
58 58 58 58 58 59 60 60 60 61 61 61 61 62 63 63 63 63 63 63 63 63 64 63 63 63 63 63 62 62 62 62 62 63 62 62 62 62 62 62 62 62 62 62 62 61 62 61 60 60 59 57 57 59 58 59 60 60 61 62 63 63 63
58 58 59 59 60 61 61 61 61 61 61 62 62 62 63 63 63 63 63 63 63 63 63 63 63 62 62 62 62 62 62 64 63 62 62 62 62 63 62 62 62 62 63 62 62 62 62 63 62 61 61 59 57 55 58 57 58 59 62 60 62 63 63
61 61 61 60 60 61 62 62 61 61 62 62 62 63 63 63 63 63 63 63 63 63 63 63 63 63 63 62 62 62 62 63 63 62 63 62 62 62 62 62 62 62 62 63 63 63 62 63 62 62 61 60 59 57 55 56 56 57 59 62 59 62 64
62 62 62 62 61 61 62 62 62 61 61 62 63 63 63 63 62 63 62 62 62 62 62 63 63 63 62 62 62 62 62 62 61 62 62 62 62 62 62 62 62 61 62 62 62 63 62 62 62 62 62 61 61 59 57 56 56 58 58 61 62 61 63
61 60 61 61 61 61 60 60 60 60 61 62 62 62 61 60 60 60 61 60 60 61 61 62 62 62 62 61 61 61 61 61 61 61 62 62 62 62 62 62 62 62 62 62 62 63 63 62 62 62 62 62 61 61 59 58 55 57 60 59 61 63 63
59 59 60 59 59 59 59 59 60 59 59 60 61 60 59 58 58 58 58 58 58 59 59 60 61 62 61 61 61 61 61 61 61 61 61 61 62 62 62 61 61 61 62 62 62 62 62 62 62 62 61 61 61 60 59 58 57 56 59 60 61 62 63
58 58 58 58 58 59 59 59 59 59 59 58 58 58 57 58 58 57 57 57 57 57 56 57 58 60 60 60 60 59 59 59 60 60 60 61 62 62 61 61 61 62 62 61 61 62 62 62 62 61 61 61 60 60 59 58 57 56 58 59 60 61 62
56 56 55 56 57 57 58 58 58 59 57 57 57 56 56 56 56 56 56 56 55 55 54 55 55 56 59 60 60 60 59 59 59 59 59 60 60 61 61 61 61 61 62 62 61 62 61 61 61 60 60 60 60 59 60 58 57 57 56 57 59 61 61
55 55 55 56 56 56 56 57 57 57 56 56 57 56 56 55 55 55 54 54 54 53 53 53 54 54 55 57 59 60 60 59 59 58 58 59 59 60 60 59 59 60 61 61 60 60 61 61 61 60 60 60 59 59 60 60 58 57 57 57 59 59 60
55 56 55 56 55 55 56 56 56 55 55 56 55 55 56 55 54 53 53 53 53 53 53 53 53 53 54 55 57 59 59 59 59 59 59 59 59 59 59 59 58 59 59 59 59 59 59 60 60 60 60 59 60 60 59 59 59 58 57 56 58 59 61
55 54 54 55 54 55 55 55 55 55 54 54 54 54 55 55 53 53 52 52 52 52 52 52 52 53 54 56 58 59 59 60 60 60 60 60 61 60 59 59 59 59 59 59 58 58 59 59 60 60 59 59 59 59 60 59 59 59 58 57 57 59 60
54 54 54 54 54 54 54 54 53 53 53 52 52 53 53 53 53 52 52 52 52 51 51 51 51 52 55 58 59 60 60 60 60 60 60 59 59 59 59 59 59 59 59 59 59 59 59 60 60 59 59 59 59 59 59 59 59 58 58 58 57 56 59
53 53 53 53 53 53 53 53 52 51 52 51 51 50 52 52 52 52 51 51 51 51 51 50 50 51 55 57 58 58 58 59 60 59 59 59 59 58 58 58 57 57 58 59 59 59 59 59 58 59 59 59 59 59 57 58 58 58 58 57 57 57 58
53 53 53 53 52 52 52 51 50 50 49 48 49 49 50 51 51 51 50 51 51 51 51 50 49 50 54 56 56 56 55 55 56 57 57 57 57 57 57 57 57 56 55 55 56 59 59 58 58 58 58 59 59 58 57 57 57 57 57 57 57 56 57
53 53 52 52 51 50 49 48 48 48 48 48 49 49 50 50 50 50 50 49 49 49 49 49 49 49 51 54 54 54 53 52 52 52 53 54 55 56 56 56 57 57 57 56 52 50 53 56 58 58 57 58 58 58 57 57 57 57 57 57 56 56 56
52 51 50 49 49 48 47 47 47 47 48 48 48 49 49 50 50 49 48 48 48 47 47 47 48 47 48 52 52 52 51 50 50 50 50 50 51 53 54 55 56 58 56 54 51 46 45 45 49 54 56 58 58 57 57 56 56 56 57 56 56 55 55
51 49 48 47 46 46 46 46 45 46 46 47 47 48 48 48 48 48 48 47 46 46 45 46 44 43 43 46 52 51 50 50 50 49 49 48 48 49 52 54 54 56 56 56 54 48 46 45 44 44 44 46 49 55 57 56 56 56 55 56 55 55 55
48 47 46 46 45 45 45 45 44 44 45 45 45 46 45 46 46 47 47 46 45 45 45 44 42 43 43 43 47 50 50 49 49 49 48 48 47 48 49 51 52 53 54 55 56 54 52 48 45 45 45 45 44 42 44 54 56 55 55 55 54 55 55
49 47 46 45 45 45 44 44 43 43 43 44 44 44 44 44 44 45 45 45 44 44 44 42 41 42 43 43 44 48 49 49 49 48 49 48 47 47 47 48 49 49 50 53 51 53 54 53 49 48 48 48 48 46 42 41 43 53 56 55 55 54 55
50 48 46 45 45 44 43 43 43 43 43 43 43 43 43 43 43 43 44 43 43 43 43 41 40 41 42 42 43 46 48 48 48 48 49 48 48 47 47 46 46 46 47 47 46 48 54 54 53 53 53 52 50 49 46 44 44 45 49 54 54 54 54
49 48 46 45 44 43 43 42 42 42 42 42 42 42 42 42 43 43 43 43 43 42 42 41 40 41 41 42 43 45 47 47 47 47 48 49 49 48 48 47 47 46 46 45 45 45 49 53 54 54 53 52 52 51 48 47 47 48 47 48 48 50 50
46 45 44 44 43 42 42 41 41 42 42 42 42 42 42 42 42 42 43 42 42 41 41 40 40 41 41 42 44 47 47 46 46 46 46 47 47 48 48 48 47 46 46 45 43 42 44 51 54 54 52 52 52 52 51 48 43 44 46 46 46 45 45
44 43 43 43 42 42 41 41 41 42 41 41 41 41 41 41 42 42 42 42 41 41 41 40 40 40 40 41 45 46 46 46 45 45 45 46 47 47 47 47 47 46 46 45 42 41 42 47 49 50 51 51 51 50 50 52 48 45 44 44 44 44 43
42 42 42 41 41 41 41 41 41 42 40 40 40 40 40 40 40 41 41 41 42 40 40 41 40 40 40 41 45 45 45 45 44 44 44 44 45 46 47 46 46 44 44 43 41 42 43 47 47 47 48 49 49 48 48 50 51 50 47 46 45 45 44
41 41 41 40 41 40 40 40 40 41 40 40 40 39 41 39 39 39 40 40 44 40 39 41 40 40 40 40 44 45 45 44 43 42 43 43 44 44 44 45 44 42 43 41 40 40 41 46 46 45 46 46 46 46 47 48 48 48 49 49 49 49 48
41 41 40 40 40 40 40 40 39 40 39 39 39 39 39 39 38 38 38 38 39 39 39 39 40 39 40 40 41 44 43 43 42 41 42 43 42 42 42 42 43 40 39 39 39 40 40 41 46 45 45 43 43 44 48 48 47 48 48 48 47 48 48
41 41 41 40 41 41 40 39 39 39 38 39 39 39 38 38 38 37 37 37 37 38 40 38 40 39 40 40 40 41 42 42 41 41 41 41 40 40 40 41 41 41 39 40 40 40 40 40 42 44 43 43 43 43 46 46 46 46 47 47 47 47 47
42 42 41 41 40 39 39 39 39 38 37 38 38 37 37 37 37 37 37 37 37 36 40 42 39 40 39 40 39 40 40 40 41 42 41 40 40 39 39 39 40 40 39 40 40 40 40 40 41 44 41 40 40 41 45 46 46 46 45 45 45 45 45
41 42 41 40 39 38 38 38 38 38 37 38 37 37 36 36 37 37 38 37 36 37 36 40 40 40 40 39 39 39 39 39 40 42 40 39 38 38 39 39 41 41 39 39 40 40 40 40 42 40 39 40 41 41 44 45 44 44 44 44 44 43 43
40 39 40 39 39 38 38 38 37 37 36 37 37 36 35 36 36 36 36 37 37 37 36 37 40 40 40 39 39 39 39 39 39 40 40 39 38 38 38 38 40 39 39 40 40 40 40 40 39 39 40 40 41 42 45 44 44 44 43 42 42 42 42

ECMWFFLT1_sfc_temp_114.txt.gz
Temp
60 60 60 61 60 61 61 61 62 62 62 62 62 62 63 63 63 63 63 63 63 64 64 64 63 64 64 65 65 65 65 64 64 62 61 62 61 61 62 61 62 63 61 61 61 60 58 56 57 62 63 63 63 63 63 63 63 62 62 62 64 63 64
61 60 60 61 60 60 61 61 61 61 62 62 62 62 62 63 63 63 63 63 63 63 64 64 64 64 64 64 64 64 64 64 64 63 62 62 62 61 62 61 62 61 61 60 61 61 58 57 57 58 58 62 62 63 63 64 64 63 63 62 63 64 64
60 60 60 60 60 59 60 60 60 61 61 61 62 62 63 63 63 63 63 63 62 63 63 63 64 64 64 64 64 64 64 63 63 63 62 62 62 62 62 62 60 60 60 59 59 59 59 59 57 57 58 58 58 60 62 62 63 64 63 63 63 63 63
59 59 59 59 59 60 59 60 60 60 61 61 62 63 63 63 63 64 63 63 63 63 63 63 63 63 63 63 64 64 64 63 63 63 62 63 62 62 62 61 61 61 60 59 59 60 59 58 57 57 59 59 59 59 61 63 63 64 64 63 63 63 63
58 59 58 58 59 59 60 60 61 61 61 61 62 62 63 63 63 63 63 63 63 63 63 63 64 64 64 64 63 63 63 63 63 62 62 62 62 62 62 62 62 62 61 60 61 61 60 59 59 58 58 59 60 60 62 62 64 63 63 63 63 63 63
58 58 58 59 60 60 60 60 60 60 60 60 61 61 62 63 63 63 63 63 63 63 64 63 63 64 63 63 63 63 63 62 62 62 61 62 62 61 61 62 62 62 61 62 62 60 61 61 60 58 58 60 58 59 61 61 60 63 64 63 63 63 63
58 58 58 60 60 61 61 60 60 60 60 61 61 62 62 63 63 63 63 63 64 64 64 64 64 64 63 63 63 62 62 63 62 62 62 62 62 62 63 61 62 62 62 62 62 62 60 60 58 58 58 58 59 58 60 60 63 60 62 63 64 64 63
58 59 60 61 61 61 61 61 61 61 61 61 62 62 63 63 63 63 63 63 63 63 63 63 63 63 63 63 63 63 63 63 62 62 62 62 62 62 62 62 62 62 62 62 62 62 62 61 61 60 59 57 57 58 58 60 60 61 61 63 65 64 64
60 60 61 61 62 62 61 61 61 61 61 62 62 62 62 62 61 61 62 61 62 61 62 62 62 63 63 62 62 63 62 64 63 62 62 63 62 63 62 63 62 62 63 63 63 62 62 62 62 61 60 59 57 55 58 57 58 59 63 61 63 64 64
61 61 61 61 61 61 61 61 60 60 61 62 62 62 61 61 60 60 59 59 60 60 60 61 61 62 62 62 62 62 62 62 62 62 62 62 62 62 62 62 62 62 63 63 63 63 63 62 62 62 61 60 59 57 55 56 57 58 60 63 60 62 65
60 60 60 60 60 60 60 60 60 59 59 60 60 60 60 59 59 59 58 58 58 58 58 59 59 60 61 61 62 61 62 62 61 62 62 62 62 62 62 62 62 62 63 63 62 62 62 62 62 62 61 61 61 58 58 56 57 60 60 62 62 61 63
59 59 59 60 59 59 58 59 59 58 58 58 58 57 57 57 57 57 57 57 57 56 56 57 57 58 59 60 61 61 61 61 60 61 62 62 62 62 62 62 62 62 63 62 63 62 63 63 62 62 62 62 61 61 59 58 56 58 61 59 61 63 63
58 58 58 58 58 58 58 58 58 57 57 57 56 56 57 56 56 55 56 55 55 55 55 55 56 56 57 59 59 60 61 61 60 60 60 61 62 62 62 62 62 62 62 62 62 62 62 63 63 62 62 61 61 61 60 59 57 57 59 60 61 62 63
56 57 57 58 57 57 57 57 57 57 57 55 55 55 55 55 55 55 55 55 55 54 54 54 55 55 56 57 59 60 61 61 60 60 60 60 61 61 61 61 62 62 63 62 62 62 62 62 62 62 62 61 61 61 60 59 57 57 58 60 61 62 63
56 57 56 56 56 56 56 56 56 56 55 55 55 55 55 55 54 54 54 54 54 54 54 54 55 55 56 57 59 60 61 60 60 60 60 60 61 61 61 60 61 61 62 61 62 62 62 61 61 61 61 61 61 60 60 59 58 57 56 58 59 61 62
56 56 55 55 55 55 55 55 55 54 54 54 55 55 55 55 54 54 53 53 53 53 53 53 54 55 57 58 59 60 60 60 59 59 58 59 59 60 60 59 59 60 61 60 61 61 61 61 61 61 60 60 60 60 60 60 58 56 57 57 59 60 61
55 55 54 54 54 54 54 54 54 53 53 53 53 54 55 54 53 53 52 52 53 53 52 53 54 56 57 58 58 58 59 60 59 58 58 57 57 57 57 57 57 58 59 59 60 59 60 60 60 60 60 60 60 59 59 59 59 58 57 56 57 59 60
53 53 53 53 53 53 52 52 52 52 52 52 52 53 53 53 52 52 51 52 52 52 51 52 53 55 57 57 56 56 56 57 57 57 56 56 57 57 57 57 56 56 57 57 58 59 60 60 60 60 59 60 60 60 60 59 59 59 57 57 57 58 60
52 52 52 52 52 51 50 50 50 51 52 51 51 52 52 52 52 51 51 51 51 51 51 52 53 54 55 55 54 54 53 54 54 54 55 55 56 57 56 56 57 56 55 54 54 56 58 59 60 60 60 60 60 60 59 58 59 58 58 57 57 56 58
52 51 51 51 50 49 49 49 50 50 51 51 51 51 51 51 51 51 50 50 50 50 50 50 51 52 53 53 53 52 52 52 52 53 53 53 54 55 56 56 56 56 55 53 52 52 54 56 58 59 59 60 60 60 58 58 58 58 58 58 57 57 57
51 51 50 49 48 48 49 49 50 50 51 50 50 50 50 50 50 50 50 50 49 50 49 49 49 51 53 53 52 52 52 52 51 51 52 52 53 54 55 55 55 55 56 55 52 50 50 52 56 57 58 59 60 59 58 58 57 57 57 57 57 56 56
51 50 49 47 47 47 47 48 49 49 49 49 50 50 50 50 49 48 49 48 48 48 47 48 48 48 50 51 52 52 52 52 52 51 51 52 53 53 53 53 54 55 55 56 53 52 50 50 51 51 52 54 56 58 58 57 57 57 56 56 56 56 56
49 48 47 46 46 46 46 46 47 47 47 48 48 49 48 49 48 47 46 46 47 46 46 47 47 45 46 50 51 52 53 53 53 52 52 52 53 53 52 52 53 55 53 52 51 48 46 47 49 49 48 49 50 54 56 56 56 56 56 56 56 55 54
48 46 45 45 45 45 45 45 45 45 45 46 46 46 47 46 46 46 45 45 45 45 45 45 43 42 42 44 50 51 51 51 52 51 50 50 51 51 51 53 52 53 53 53 52 49 47 46 45 45 46 46 47 47 48 50 53 55 55 56 55 55 55
45 44 45 44 44 44 44 44 44 44 44 44 45 45 44 45 45 45 45 45 44 44 44 43 41 42 42 43 46 50 50 50 49 49 49 49 49 49 49 50 51 51 51 52 53 54 53 49 46 46 46 45 44 43 43 45 47 50 53 54 54 55 54
45 44 44 44 44 44 43 43 43 43 43 44 44 44 44 44 44 45 44 44 43 44 44 42 41 42 42 42 43 47 49 49 48 48 48 48 48 47 48 48 48 49 49 51 51 52 54 55 51 49 49 49 48 46 43 42 43 47 50 51 51 50 48
44 44 44 44 43 43 43 42 42 43 43 43 43 43 43 43 43 44 44 44 43 43 42 41 41 41 42 42 42 45 48 48 48 48 47 47 47 47 47 47 46 46 47 48 47 49 52 53 53 53 53 52 52 50 47 45 44 44 47 48 47 46 47
44 43 43 43 43 42 42 42 42 42 42 42 42 42 42 42 43 43 43 44 44 42 42 40 40 41 41 42 43 45 48 48 47 47 47 47 47 46 46 46 47 47 47 47 45 46 50 51 52 52 51 51 51 50 50 49 47 48 47 47 47 46 46
43 43 43 42 42 41 41 41 41 42 42 41 42 42 42 42 42 42 43 43 43 42 42 40 40 40 41 41 44 48 47 47 46 46 46 46 47 47 47 46 46 45 45 45 43 42 45 50 50 50 50 50 50 49 49 49 45 45 46 46 46 46 46
42 42 42 42 41 40 40 40 41 42 41 40 40 40 40 40 41 41 42 42 42 42 42 41 39 40 40 41 44 47 47 46 46 45 45 45 46 46 47 46 45 45 44 44 41 40 42 47 49 48 48 48 49 49 48 49 47 45 44 44 44 43 43
42 41 41 40 40 40 40 40 40 41 40 40 39 39 40 40 40 40 41 41 42 40 41 41 40 40 40 40 44 45 46 45 44 44 44 45 45 45 46 46 46 44 44 43 40 40 41 47 49 48 47 47 46 46 46 48 49 49 46 46 45 44 44
41 41 40 40 40 39 39 40 40 40 40 40 39 40 41 39 39 39 40 41 43 40 40 41 40 39 39 40 43 45 45 45 43 42 43 44 44 44 44 45 44 42 43 41 39 40 40 45 46 46 46 47 46 45 45 47 46 47 47 47 47 48 47
41 41 40 39 39 39 40 39 39 39 39 39 39 39 40 39 39 38 39 39 40 40 40 41 41 39 40 40 41 44 44 43 42 41 42 43 42 43 43 43 44 40 39 39 39 39 40 41 45 45 45 44 43 43 46 47 47 47 47 46 46 47 47
40 40 40 40 40 40 39 38 38 39 38 39 39 39 39 39 39 39 39 39 39 40 42 40 41 39 40 40 40 41 42 42 42 42 41 41 41 40 41 41 43 41 39 39 39 39 40 39 41 45 43 42 42 42 45 47 46 46 47 46 46 45 45
41 41 40 40 39 38 38 39 38 38 38 39 39 38 39 39 39 39 39 39 39 38 41 42 41 41 39 40 39 39 41 41 42 42 41 40 40 40 39 40 41 40 39 39 39 39 39 40 40 43 41 39 39 40 46 47 47 47 47 46 45 45 44
41 41 40 39 39 37 38 38 38 38 38 39 38 38 37 38 39 39 39 39 39 39 39 41 41 41 40 39 39 39 39 39 39 42 40 39 38 38 40 40 42 40 39 39 39 39 39 39 41 40 38 39 39 40 44 46 46 46 46 46 45 44 44
39 39 39 39 39 38 37 38 38 37 37 38 38 37 37 37 38 38 38 39 39 39 39 39 40 40 40 39 39 39 39 38 39 40 41 39 39 39 39 39 40 39 39 39 39 39 39 39 39 38 39 39 40 41 44 44 44 45 44 44 43 43 43

ECMWFFLT1_sfc_temp_117.txt.gz
Temp
70 69 70 70 70 72 71 70 70 67 67 68 67 68 68 68 68 67 67 67 68 68 67 67 66 67 69 69 69 69 69 68 68 65 65 67 64 64 67 64 62 64 64 65 65 63 63 61 65 69 69 70 69 69 69 69 68 66 66 66 66 67 67
70 70 71 71 71 71 69 68 68 67 66 67 68 67 68 68 68 67 68 68 68 68 68 68 69 69 69 68 67 66 67 68 68 67 66 65 66 65 65 65 64 61 61 62 63 63 60 60 64 66 67 69 68 68 69 69 69 67 66 66 66 67 68
70 70 71 69 69 68 67 67 67 66 66 67 68 69 68 69 69 69 69 68 67 68 68 69 70 70 69 68 68 67 67 66 67 66 65 65 65 66 66 66 63 62 61 60 60 60 61 63 61 65 68 66 63 66 68 67 67 68 68 67 67 67 67
68 69 68 65 66 67 66 66 66 66 67 67 68 68 67 69 68 69 68 69 69 69 69 69 68 68 68 67 68 68 68 67 67 67 67 67 66 64 67 65 63 64 62 61 60 62 61 60 60 61 65 69 68 66 67 68 66 67 68 68 67 67 66
68 66 64 64 64 65 65 65 66 67 66 66 66 67 67 68 68 68 69 69 68 68 67 68 68 67 67 68 67 67 67 67 68 67 67 66 66 65 63 65 65 66 66 64 63 62 60 60 60 62 65 69 69 69 71 66 67 67 67 67 67 67 67
66 66 66 65 66 65 65 65 65 64 65 65 65 66 66 66 67 66 66 66 66 67 67 67 67 67 68 67 66 67 66 67 66 66 65 65 66 64 64 65 65 65 64 66 67 65 64 63 62 59 63 62 61 66 68 66 65 67 68 67 68 65 66
66 66 66 66 66 66 66 65 65 64 63 64 65 65 66 67 66 65 65 65 66 66 66 65 65 66 67 65 66 66 67 68 67 66 66 65 65 66 67 66 66 66 66 68 66 65 63 62 61 61 62 63 63 63 65 64 65 63 66 68 68 66 65
66 66 66 65 64 64 65 65 65 64 63 65 64 66 67 65 64 65 64 65 64 64 64 63 63 64 64 64 64 66 68 68 68 67 67 66 65 65 66 65 65 65 65 67 66 65 66 64 64 64 63 59 59 61 61 64 65 63 65 67 69 67 66
66 66 66 65 65 64 64 65 64 62 63 64 65 65 64 65 64 63 64 64 64 63 62 62 63 63 64 64 64 65 66 67 66 67 67 66 65 65 66 67 66 66 67 66 65 64 64 65 64 64 63 60 57 57 61 61 63 63 66 64 67 69 68
64 63 63 62 63 64 64 64 64 62 62 62 63 64 63 63 63 62 62 61 61 60 60 61 61 63 64 65 64 64 64 65 66 66 66 66 66 65 65 66 66 66 65 66 66 65 65 65 64 63 63 61 62 58 57 58 60 61 64 65 62 66 69
64 63 63 63 63 64 64 63 61 61 60 62 63 62 62 61 61 60 60 60 60 60 60 60 61 62 63 63 64 64 64 65 65 66 67 66 66 65 65 66 67 67 68 66 65 66 65 65 64 64 63 64 63 59 59 58 59 62 61 63 65 66 67
63 63 63 63 64 63 61 60 60 60 60 61 61 60 60 60 59 59 59 59 59 59 60 60 61 61 63 63 63 63 64 65 64 64 64 64 65 65 65 64 65 66 67 67 67 67 66 65 64 64 63 63 62 62 61 60 57 61 64 61 64 68 66
63 63 63 63 62 61 59 59 59 59 59 60 60 60 60 59 58 58 59 58 58 59 59 60 60 61 63 64 64 64 64 64 64 63 64 64 64 64 64 64 63 63 63 65 66 67 67 67 65 63 64 63 63 63 62 60 58 59 63 64 64 65 67
61 62 61 61 60 59 58 58 59 59 60 58 59 59 59 58 59 58 59 58 59 59 59 59 61 61 62 62 63 63 63 63 62 61 62 62 63 63 63 62 62 62 63 62 63 65 65 65 65 64 64 63 63 64 62 60 59 58 61 62 63 64 65
61 61 60 59 57 57 58 57 58 59 57 58 58 58 58 58 58 59 59 58 58 59 60 60 60 60 59 59 59 59 59 59 60 60 60 60 61 61 61 60 60 61 61 61 62 62 63 62 63 64 63 63 62 62 63 61 60 59 58 60 62 63 63
59 58 57 57 56 57 57 57 58 57 56 57 58 58 57 58 58 59 60 58 59 59 59 60 60 59 58 58 58 58 58 59 58 58 57 58 59 60 60 60 60 60 59 59 60 61 62 62 63 63 64 64 62 62 62 62 61 59 58 58 61 61 62
56 56 55 56 55 56 56 56 57 57 57 57 57 57 58 59 59 60 61 60 61 60 60 61 61 60 59 58 57 57 58 58 58 58 57 58 58 58 58 57 58 58 58 58 58 58 60 61 62 62 64 64 63 63 62 61 61 59 59 58 60 60 62
55 55 55 55 54 55 55 55 56 57 57 57 57 57 57 59 60 60 58 60 60 58 58 60 60 59 59 59 59 58 58 59 59 59 58 58 58 57 57 56 57 58 57 55 55 55 57 58 61 62 62 63 63 64 64 63 62 61 60 59 60 61 61
54 54 54 53 53 54 54 55 55 56 57 57 57 57 57 57 58 59 59 59 58 58 57 57 59 59 59 59 59 59 59 59 59 60 59 58 58 58 57 57 57 57 56 54 53 53 54 55 58 58 59 60 62 63 64 64 62 60 59 59 60 60 60
53 52 53 53 53 53 54 54 55 55 56 56 56 56 57 58 58 58 58 57 57 57 56 56 56 58 59 60 59 58 58 59 60 60 59 59 59 59 58 57 56 57 56 55 53 52 52 53 54 54 54 56 59 61 62 62 61 60 59 59 59 59 59
53 53 53 53 53 53 54 54 54 55 55 54 54 56 56 57 57 57 57 57 56 57 57 55 56 58 59 58 58 58 58 58 58 59 58 59 60 60 59 58 57 56 56 55 53 53 52 51 52 51 52 53 55 57 58 59 60 59 58 58 58 58 60
54 54 54 53 53 53 53 53 54 54 54 54 54 56 58 58 57 58 57 55 56 55 54 53 52 53 56 58 58 57 56 57 57 57 58 58 59 59 60 59 58 56 56 55 52 51 51 52 51 49 50 51 52 53 55 56 55 56 57 57 57 58 58
54 54 54 54 53 53 54 54 54 54 54 55 56 57 57 56 56 55 55 56 55 53 52 52 47 44 46 55 58 57 57 56 56 56 56 57 57 58 58 58 58 55 53 52 51 48 47 47 49 51 50 49 49 50 52 54 53 54 54 52 51 51 52
55 54 54 54 54 54 54 54 55 55 54 54 55 55 55 55 54 55 55 54 54 52 51 49 42 42 43 44 55 57 56 56 56 55 55 55 55 56 57 58 58 56 55 55 56 48 47 46 45 46 46 47 48 48 48 49 51 52 51 49 49 49 49
57 55 55 54 55 55 55 55 55 56 55 54 53 54 53 54 54 54 54 54 53 52 51 44 41 42 42 42 47 56 56 56 56 55 55 55 55 55 56 56 57 56 56 55 57 58 55 48 46 46 46 45 44 43 43 46 48 50 49 48 47 46 47
53 54 55 54 55 57 57 55 53 52 52 52 53 53 53 53 53 54 54 53 52 52 52 42 41 42 42 42 43 52 57 56 55 55 55 55 55 54 55 55 55 55 55 54 55 56 58 59 51 49 49 49 48 46 43 42 44 49 50 48 47 45 45
52 52 52 52 53 53 52 52 51 52 52 53 52 52 52 52 53 53 53 53 52 51 50 43 41 41 42 42 43 49 57 56 55 55 54 54 54 54 54 54 54 54 54 54 53 54 58 58 58 58 57 56 55 52 47 46 45 45 48 49 47 45 46
52 52 52 52 52 52 51 51 51 52 52 52 51 52 52 52 52 53 53 53 52 50 47 40 40 41 41 42 44 49 56 55 55 55 54 54 54 54 54 54 54 54 53 52 50 48 56 58 58 58 57 56 55 54 53 52 51 52 52 50 49 48 48
52 52 52 52 52 51 51 51 50 51 52 52 52 52 52 53 52 52 53 53 52 51 48 39 40 40 41 42 46 56 56 55 54 54 54 55 54 54 53 54 54 53 53 51 44 41 45 56 58 57 56 56 57 56 54 49 45 46 50 51 50 49 49
52 52 52 51 51 50 50 50 51 53 51 51 51 51 51 51 52 52 52 52 52 51 49 42 39 40 41 40 49 56 56 56 55 54 53 54 55 53 51 51 53 53 52 50 42 40 41 49 57 56 56 55 55 55 54 56 49 45 44 43 42 42 42
52 51 52 51 50 50 51 51 51 52 52 51 51 51 52 52 52 52 51 51 51 51 50 44 39 40 40 39 47 56 56 54 54 54 54 54 55 54 52 45 47 50 50 48 40 40 40 51 55 55 55 55 54 53 54 55 57 56 47 46 45 44 43
52 51 51 50 50 50 50 50 51 52 52 52 51 53 53 52 51 52 51 51 47 50 50 46 40 39 40 40 49 56 55 55 53 52 53 53 54 54 54 50 44 43 45 43 39 40 40 49 54 53 53 53 52 53 53 55 55 55 56 57 57 57 55
51 51 50 50 50 50 51 51 51 51 52 54 53 53 53 52 51 51 51 51 50 51 50 48 44 39 40 40 41 53 55 54 52 52 52 53 52 53 53 53 49 40 39 39 39 39 40 41 51 52 52 51 50 50 56 56 54 56 56 56 56 57 56
50 51 51 50 50 50 51 51 51 52 52 52 52 52 51 52 51 51 51 51 51 50 49 50 45 39 39 40 40 45 53 52 53 53 53 52 52 51 52 52 51 42 38 39 39 38 40 40 43 51 49 49 48 47 51 56 55 51 56 56 56 56 56
51 50 51 51 50 49 50 51 51 52 53 52 51 51 52 52 52 51 51 51 51 51 49 45 49 41 39 39 39 40 49 49 50 53 51 52 52 51 51 51 50 42 38 39 39 39 39 40 41 50 45 40 40 40 54 56 57 57 56 57 57 55 55
50 51 50 50 50 49 50 51 51 52 52 52 51 51 51 52 52 51 51 52 52 52 51 49 42 45 40 39 38 39 38 44 41 52 51 50 49 50 51 50 48 40 39 39 39 39 39 40 44 44 38 39 41 42 49 56 56 55 55 55 55 54 54
50 50 50 50 50 49 49 51 51 52 53 53 52 51 52 52 52 51 51 51 51 52 53 52 45 41 43 38 39 38 38 38 40 49 51 50 50 49 49 48 45 39 39 39 40 40 40 40 43 38 39 39 42 46 55 55 54 54 53 53 53 53 53

ECMWFFLT1_sfc_temp_123.txt.gz
Temp
77 75 76 75 76 77 76 76 76 75 76 75 75 76 76 77 76 76 76 76 76 76 77 76 75 76 76 76 75 75 74 74 73 72 71 72 69 70 73 72 70 68 66 65 66 63 61 60 65 72 73 71 73 71 69 68 67 67 69 69 69 72 72
77 77 77 77 76 76 75 75 74 74 74 75 75 75 76 77 76 76 76 76 75 75 76 77 75 75 74 74 74 74 73 74 74 73 72 71 72 71 71 71 71 69 69 69 68 65 61 61 62 64 67 73 72 72 72 70 69 68 67 70 74 70 71
77 76 76 74 75 75 73 74 74 74 75 74 74 75 75 77 76 76 75 75 74 75 75 74 74 74 73 74 74 74 73 73 74 73 71 72 73 73 72 71 68 68 69 69 69 67 65 64 59 62 66 65 65 70 72 70 69 68 67 68 68 70 72
74 74 74 73 74 73 73 73 74 73 73 74 74 74 74 74 74 75 74 74 75 74 74 72 71 71 73 73 74 75 74 73 73 73 73 73 73 72 72 71 70 68 67 66 66 66 63 60 61 64 66 67 65 66 71 73 71 70 68 68 68 68 69
75 74 72 72 73 74 74 74 75 75 74 73 73 74 73 73 73 73 73 73 73 72 71 71 72 72 73 74 74 74 73 74 74 73 72 71 71 71 71 71 71 71 69 67 68 67 65 62 61 61 65 67 66 69 73 70 69 69 68 67 68 68 68
74 73 73 72 74 73 74 73 74 73 73 72 72 71 71 71 72 71 71 71 71 71 71 71 71 72 72 73 73 73 73 73 73 72 71 71 70 69 69 71 71 71 70 67 68 68 65 63 62 61 65 67 63 67 71 70 69 72 71 69 68 68 68
73 73 72 73 74 74 73 71 71 71 71 71 71 70 69 70 71 71 70 70 70 70 70 70 71 72 72 73 73 72 72 73 72 72 71 71 71 70 71 70 70 71 70 70 70 68 65 63 62 61 62 65 66 67 71 72 75 71 73 72 69 69 68
73 72 72 72 72 71 71 70 71 72 71 71 70 70 70 69 69 70 70 69 69 69 70 69 70 71 72 72 73 72 71 71 71 71 71 70 69 68 68 68 68 69 70 70 69 68 68 67 65 62 60 58 62 66 66 68 69 71 71 71 69 69 68
72 71 70 70 70 70 70 70 70 69 70 69 69 69 69 70 69 70 70 69 69 69 69 70 70 70 71 71 71 70 69 71 70 69 68 68 67 67 67 68 68 68 68 68 68 68 68 68 68 66 64 62 58 58 65 65 68 67 71 66 70 71 68
71 69 68 68 68 69 69 70 69 69 69 69 68 69 70 70 70 70 69 69 68 69 69 69 70 70 70 69 69 70 69 71 71 69 68 67 67 67 67 66 67 67 67 68 68 68 68 67 67 68 66 62 62 58 58 60 65 65 69 67 63 70 72
70 69 69 69 69 68 69 69 69 67 67 68 69 70 71 70 69 69 69 69 69 69 69 70 71 71 71 70 70 70 70 71 70 69 68 67 66 67 67 68 68 67 67 67 67 67 67 67 67 67 67 66 64 59 58 56 60 67 65 66 66 65 68
70 69 69 69 69 69 69 68 67 67 67 68 69 69 70 70 70 70 70 71 72 71 71 71 72 72 71 69 69 70 70 69 68 66 67 66 66 67 67 67 67 67 68 67 67 67 67 67 66 68 67 66 66 63 60 59 56 64 69 63 65 67 65
70 69 69 69 68 68 68 67 67 66 66 68 68 70 72 72 73 73 73 73 73 73 72 71 72 72 71 70 69 67 67 67 67 66 67 67 66 66 66 66 66 66 67 69 68 68 67 67 67 67 66 65 64 65 63 61 58 60 67 67 66 66 66
67 68 68 68 67 66 66 66 66 66 67 68 70 70 71 74 74 73 73 73 74 73 72 70 70 70 70 69 67 67 67 68 67 66 67 66 66 65 65 66 66 66 68 67 67 68 67 67 68 67 66 65 64 65 63 62 60 59 63 66 67 65 66
67 67 66 66 66 67 66 66 66 67 66 68 71 71 72 72 74 73 73 74 73 73 73 71 70 69 68 68 67 67 66 67 67 67 66 66 66 65 64 64 65 66 67 67 67 67 68 68 67 67 65 64 64 64 65 61 60 59 58 63 63 64 62
67 66 66 66 65 65 65 65 67 66 67 68 70 72 72 73 73 75 73 71 72 72 72 71 70 69 68 68 69 68 68 67 66 66 65 65 66 65 63 63 64 64 65 64 64 66 67 66 68 67 65 65 64 64 65 64 61 59 59 59 61 59 59
65 65 64 64 64 64 65 66 68 68 68 69 69 71 74 75 73 72 71 72 72 71 71 71 71 70 69 70 69 69 69 68 68 67 66 66 65 63 62 62 62 63 63 63 63 63 65 65 66 67 66 66 65 65 66 65 64 61 61 59 61 62 62
64 63 63 63 63 64 65 66 68 69 69 69 70 71 71 73 72 71 73 72 70 70 71 72 72 71 70 70 70 69 69 69 68 68 67 66 64 62 61 60 61 63 62 61 60 60 62 62 63 64 64 67 67 67 68 66 65 63 61 59 60 63 63
62 62 62 63 64 65 65 66 67 68 70 70 70 70 71 70 69 72 71 68 68 68 68 68 68 69 71 70 69 68 68 68 68 68 68 66 65 63 61 60 60 62 62 59 59 59 60 60 61 61 61 63 66 67 66 67 67 65 63 61 61 60 62
62 62 62 62 64 65 65 66 68 69 71 71 70 70 71 71 68 67 68 67 66 66 65 65 64 64 69 70 69 68 68 68 68 67 67 67 65 63 63 62 60 60 60 61 60 59 60 60 59 59 59 60 63 64 64 65 65 64 62 61 61 62 61
62 62 63 64 65 65 65 66 68 69 70 69 70 71 68 67 67 67 66 66 65 64 63 62 61 61 64 69 68 68 67 67 67 67 66 66 66 65 64 63 62 60 59 58 58 59 59 59 60 58 58 58 59 61 62 63 62 63 62 60 59 59 60
63 63 64 64 65 65 67 68 68 69 69 68 68 70 70 68 67 66 66 64 64 62 60 58 57 55 58 63 68 66 66 66 65 65 66 65 65 65 65 64 62 61 59 55 50 51 52 54 59 58 57 58 57 58 59 61 60 60 60 58 57 57 57
64 64 64 64 65 66 67 68 68 68 68 69 68 69 68 67 67 65 64 64 62 60 58 57 48 44 46 55 65 66 65 65 65 65 64 64 64 64 64 65 64 58 55 54 51 47 46 47 51 56 58 57 56 56 57 57 57 57 57 55 54 54 53
64 64 65 65 66 67 68 67 68 67 67 68 67 67 66 66 65 65 64 62 61 59 57 53 41 42 43 43 57 65 64 64 64 64 64 63 62 63 63 64 64 62 60 58 56 44 45 45 45 47 47 49 51 56 56 55 55 56 55 55 55 54 53
66 66 67 67 68 68 67 67 67 66 66 65 66 66 64 64 64 64 63 62 60 59 57 44 40 41 42 42 45 60 64 63 62 62 63 62 62 62 62 62 63 62 62 60 61 61 55 45 46 46 46 47 46 45 46 53 55 55 55 54 53 53 53
68 68 68 68 68 67 67 66 66 65 65 65 65 64 64 63 63 63 62 61 60 59 58 43 41 40 42 41 41 52 65 63 61 61 61 61 61 61 61 61 61 61 61 58 59 58 59 59 46 42 45 47 48 47 45 44 46 56 58 56 54 54 53
68 68 67 67 67 66 66 65 65 65 65 64 63 63 62 62 62 62 62 61 59 58 55 43 40 40 42 40 40 46 66 62 61 61 60 59 59 59 60 60 59 59 60 59 56 52 56 59 66 65 65 64 63 59 51 50 49 49 54 58 56 55 56
67 67 67 66 66 66 65 65 65 65 64 63 63 62 61 61 61 61 61 61 59 57 53 39 40 40 41 41 39 47 65 63 62 60 59 59 58 58 58 59 59 59 58 57 52 46 51 56 64 64 64 63 64 63 62 61 62 61 60 60 60 59 59
66 66 66 66 65 65 65 63 63 64 63 63 63 63 62 62 61 61 61 60 59 57 54 40 40 40 40 41 41 63 64 63 61 61 60 59 58 57 57 57 58 57 57 55 47 41 44 52 63 62 62 63 62 63 63 57 51 54 58 60 61 60 60
65 65 65 65 65 63 62 62 63 64 63 63 62 62 61 61 62 61 60 60 58 57 56 45 39 40 40 40 48 65 64 64 62 61 60 60 59 57 55 55 55 55 55 54 44 40 42 47 62 61 61 61 62 62 62 62 48 43 48 46 44 43 43
65 65 65 64 63 62 62 62 62 63 62 62 61 62 61 60 60 60 59 58 59 57 56 47 39 40 40 40 46 63 65 63 62 61 61 61 60 59 55 48 51 53 52 52 41 41 41 51 60 59 59 60 60 60 61 63 64 59 45 50 51 50 49
66 65 64 63 63 62 61 61 62 63 63 63 62 63 62 61 60 60 59 58 54 56 56 51 41 40 40 41 46 61 64 64 61 61 61 60 60 60 59 55 48 46 48 45 40 41 41 49 59 58 58 58 57 58 59 62 62 62 63 63 62 63 61
66 64 63 63 62 62 62 62 62 63 64 64 63 63 62 61 59 59 59 58 57 57 56 54 47 39 41 42 41 56 65 63 61 60 61 61 59 59 59 58 54 44 40 40 41 41 42 41 54 59 58 57 55 56 59 63 62 63 63 62 61 62 61
63 63 63 62 62 62 63 62 63 63 63 63 62 61 60 60 59 58 58 58 56 55 54 55 50 39 41 41 41 47 62 59 61 62 61 60 59 58 58 57 57 47 40 41 41 42 43 42 45 58 56 56 55 51 51 63 61 56 63 62 61 61 61
64 63 63 62 61 61 63 64 63 63 63 61 60 60 60 60 59 58 58 58 57 55 52 49 54 45 40 41 41 41 54 58 55 62 59 60 59 58 57 57 57 49 40 41 41 42 43 43 45 58 53 43 43 43 59 63 63 64 63 62 62 60 60
62 63 61 62 62 61 62 63 63 62 61 61 60 59 60 60 59 59 59 59 58 57 56 53 44 50 42 40 41 42 41 49 44 60 59 57 57 57 58 58 56 47 41 41 40 41 43 43 50 53 42 43 44 46 54 63 62 62 62 62 61 59 59
63 62 62 62 62 61 61 61 62 62 62 61 61 60 61 60 60 59 59 58 58 58 57 56 47 44 47 40 42 41 42 41 43 56 59 57 57 57 56 56 53 41 41 42 41 43 45 45 51 42 44 43 47 51 61 61 60 60 59 60 59 58 58